Temp
4 4 4 5 5 5 6 6 6 6 6 6 6 6 6 6 7 7 7 7 8 8 8 8 7 7 7 7 7 7 7 8 8 8 8 8 8 8 8 8 9 9 9 9 9
4 4 5 5 5 6 6 6 6 6 6 6 6 6 6 7 7 7 7 7 8 8 8 7 7 7 7 7 7 7 8 8 8 8 8 7 7 8 8 8 9 9 9 9 9
4 4 5 5 5 6 6 6 6 6 6 6 6 6 6 7 7 7 7 7 7 8 8 8 8 7 7 7 7 8 9 8 7 8 8 8 8 8 9 9 9 9 9 9 9
4 5 5 5 6 6 6 6 6 6 6 6 6 6 6 6 7 7 7 7 7 8 7 7 7 7 8 8 7 8 8 7 8 8 8 8 9 9 9 10 9 9 9 10 9
4 4 5 6 6 6 6 6 6 6 6 6 6 6 6 6 6 6 7 7 7 7 7 7 7 7 8 8 7 8 8 8 8 8 8 9 9 9 11 9 9 10 10 10 10
4 5 5 5 6 6 6 6 6 6 6 6 6 6 6 6 7 7 7 7 7 7 7 7 7 7 8 8 7 8 8 8 8 9 9 9 9 10 10 9 9 10 10 10 10
5 5 5 5 5 6 6 6 6 6 6 6 6 6 7 6 7 7 7 7 7 7 7 6 7 7 7 7 7 7 7 8 9 9 8 9 10 10 9 10 10 9 9 10 10
5 5 5 5 5 6 6 6 6 6 6 6 6 6 7 7 7 7 7 7 6 6 6 6 6 6 7 6 7 7 7 8 9 9 9 8 10 9 9 9 9 9 9 9 9
5 5 5 5 5 6 6 6 6 6 6 6 7 6 7 7 7 7 7 6 6 6 6 6 5 6 6 6 6 6 7 8 8 8 8 8 9 9 9 9 9 9 9 9 9
5 5 5 5 6 6 6 6 6 6 6 7 7 7 7 7 7 7 7 6 6 6 6 5 5 6 7 6 7 8 7 7 7 8 7 7 8 8 8 8 8 9 9 9 9
5 5 5 5 5 6 6 6 6 6 7 7 7 7 7 7 7 7 7 6 6 6 6 5 5 7 8 7 6 6 6 6 8 7 6 7 7 8 8 8 9 9 9 9 9
5 5 5 5 5 5 6 6 6 6 7 7 7 8 8 8 7 7 6 6 6 6 5 5 6 7 6 6 6 6 6 6 7 7 6 6 6 7 8 8 8 9 10 10 10
5 5 5 5 5 5 6 6 6 6 6 7 8 8 7 7 6 6 5 5 5 5 5 5 5 6 6 6 5 6 5 6 6 6 5 5 6 7 8 9 8 9 10 10 9
5 5 5 5 5 5 5 5 5 5 6 6 6 6 6 6 5 6 5 4 4 4 4 3 5 6 5 5 4 4 5 5 5 4 4 4 3 5 8 8 7 7 8 8 9
5 5 5 5 5 5 5 5 5 5 1 5 5 5 5 5 5 5 5 4 4 4 3 4 5 4 4 5 4 5 4 4 3 3 3 4 3 5 6 6 7 7 8 7 8
4 4 4 4 4 4 4 4 4 4 1 4 4 4 4 4 4 4 4 4 4 3 3 5 4 4 5 4 4 4 3 4 3 3 1 3 4 4 5 6 6 6 7 8 7
4 4 4 4 4 3 3 3 3 3 4 2 2 3 3 3 3 3 3 3 3 3 3 3 4 4 4 4 3 3 3 1 1 -1 -0 4 3 3 2 3 4 5 6 7 7
3 4 4 4 4 3 3 2 2 2 2 2 2 2 2 2 2 2 2 2 1 1 0 1 2 4 4 4 4 4 2 2 0 -1 0 3 2 1 1 1 2 4 5 5 6
3 3 3 4 3 2 2 1 1 0 0 1 2 2 2 2 2 1 1 1 0 0 -0 -0 1 2 2 2 3 2 2 3 2 2 -0 3 -0 -1 -0 -2 -1 1 2 4 4
3 3 3 3 3 1 1 1 -0 -0 -0 -0 -0 -0 -0 1 0 0 0 -0 -0 -1 -1 -2 -2 -0 1 2 2 2 2 2 1 -0 -1 1 1 2 -2 -2 -1 -1 0 1 1
3 3 3 3 3 2 0 -0 -1 -1 -1 -1 -1 -2 -2 -2 -1 -2 -2 -2 -2 -2 -2 -3 -3 -2 -1 -1 0 1 1 1 1 2 1 1 -3 -3 -3 -4 -3 -4 -3 -3 -2
3 3 3 3 2 2 1 -1 -0 -1 -1 -2 -2 -2 -2 -3 -4 -4 -5 -5 -5 -5 -4 -4 -5 -5 -4 -2 -1 -2 -2 -3 -3 -1 0 1 -4 -7 -6 -7 -7 -8 -7 -7 -7
2 2 2 2 1 1 0 -1 -1 -1 -2 -3 -3 -3 -3 -4 -4 -6 -7 -6 -6 -6 -7 -7 -6 -6 -4 -2 -2 -4 -6 -7 -8 -6 -5 -3 -8 -11 -12 -11 -10 -9 -9 -8 -8
2 1 1 0 -0 -1 -1 -2 -2 -3 -3 -4 -5 -5 -6 -6 -6 -6 -7 -7 -6 -7 -7 -8 -8 -7 -7 -6 -8 -8 -8 -8 -9 -9 -8 -9 -9 -11 -13 -12 -12 -11 -11 -11 -10
0 0 -0 -0 -1 -1 -2 -3 -3 -4 -5 -5 -6 -6 -7 -8 -8 -8 -8 -7 -7 -7 -8 -9 -10 -9 -9 -9 -9 -9 -9 -9 -10 -11 -11 -11 -12 -12 -13 -13 -12 -12 -12 -11 -11
-1 -1 -1 -2 -3 -3 -4 -4 -5 -5 -6 -6 -7 -7 -8 -9 -10 -10 -9 -8 -9 -8 -10 -10 -11 -10 -10 -10 -9 -11 -12 -12 -12 -13 -15 -15 -15 -15 -15 -15 -15 -14 -13 -13 -12
-2 -2 -2 -3 -4 -4 -5 -6 -6 -7 -8 -8 -9 -10 -9 -9 -10 -9 -9 -10 -10 -11 -11 -12 -11 -11 -11 -10 -10 -12 -13 -14 -15 -15 -15 -16 -16 -16 -16 -16 -15 -15 -15 -15 -15
Height
3089 3089 3090 3091 3092 3094 3095 3097 3098 3098 3099 3099 3099 3100 3101 3101 3102 3102 3103 3104 3104 3104 3105 3106 3106 3108 3110 3111 3113 3113 3115 3113 3113 3114 3115 3115 3115 3114 3114 3112 3111 3110 3111 3112 3112
3089 3089 3089 3090 3091 3092 3093 3095 3096 3096 3097 3097 3098 3098 3099 3100 3101 3101 3102 3101 3102 3103 3103 3104 3106 3108 3108 3110 3111 3111 3111 3111 3112 3112 3112 3113 3112 3112 3111 3110 3109 3109 3109 3109 3109
3089 3089 3089 3089 3090 3091 3093 3094 3095 3095 3096 3096 3096 3097 3098 3098 3100 3099 3099 3100 3101 3101 3102 3103 3104 3106 3107 3108 3109 3108 3108 3109 3109 3109 3109 3109 3108 3107 3107 3107 3107 3107 3107 3107 3107
3090 3089 3088 3088 3089 3090 3091 3093 3093 3094 3094 3094 3095 3096 3096 3097 3100 3097 3098 3098 3099 3100 3100 3101 3103 3104 3105 3106 3107 3106 3106 3106 3107 3106 3106 3106 3105 3104 3103 3105 3104 3104 3104 3105 3106
3091 3090 3089 3089 3089 3090 3091 3091 3092 3092 3093 3093 3093 3094 3095 3097 3096 3096 3097 3097 3098 3098 3099 3100 3102 3103 3104 3104 3103 3102 3104 3103 3103 3103 3102 3102 3102 3100 3100 3101 3100 3100 3100 3102 3103
3092 3091 3090 3089 3089 3089 3089 3090 3090 3091 3091 3092 3092 3093 3094 3094 3093 3094 3094 3095 3096 3096 3097 3099 3100 3101 3101 3101 3101 3100 3100 3100 3099 3099 3098 3098 3098 3096 3099 3097 3097 3096 3097 3097 3098
3092 3091 3089 3089 3088 3088 3088 3088 3089 3089 3089 3089 3090 3090 3091 3092 3091 3091 3092 3093 3093 3094 3096 3097 3098 3099 3099 3100 3098 3098 3096 3096 3095 3096 3094 3094 3094 3094 3094 3094 3094 3094 3094 3094 3095
3091 3090 3089 3088 3087 3087 3087 3087 3087 3087 3087 3087 3087 3087 3087 3088 3088 3088 3089 3090 3091 3092 3093 3094 3095 3095 3095 3096 3096 3095 3094 3091 3093 3092 3091 3091 3088 3092 3091 3091 3092 3092 3091 3091 3091
3089 3089 3087 3087 3086 3086 3085 3085 3085 3084 3084 3084 3085 3085 3085 3084 3085 3085 3086 3087 3088 3089 3089 3090 3091 3091 3092 3092 3092 3090 3089 3088 3089 3088 3088 3087 3084 3088 3087 3087 3087 3087 3087 3086 3087
3087 3086 3085 3084 3084 3083 3083 3082 3082 3082 3082 3081 3081 3083 3082 3083 3082 3083 3083 3084 3085 3085 3086 3087 3087 3086 3086 3086 3085 3086 3085 3084 3085 3085 3083 3081 3077 3082 3084 3081 3080 3081 3081 3081 3081
3084 3083 3083 3082 3081 3080 3080 3080 3081 3080 3078 3079 3078 3078 3078 3079 3079 3080 3080 3081 3081 3082 3082 3083 3082 3079 3082 3084 3084 3083 3081 3079 3079 3082 3078 3075 3071 3073 3076 3075 3074 3075 3075 3075 3074
3081 3080 3080 3079 3078 3077 3077 3076 3075 3076 3074 3073 3073 3072 3072 3072 3074 3074 3076 3077 3076 3078 3078 3079 3073 3079 3079 3079 3077 3076 3075 3072 3073 3076 3073 3069 3063 3065 3068 3068 3070 3070 3069 3068 3068
3077 3077 3076 3075 3074 3074 3073 3073 3072 3071 3069 3068 3067 3066 3066 3067 3068 3069 3071 3070 3071 3071 3073 3071 3073 3073 3073 3073 3072 3070 3068 3069 3069 3070 3066 3064 3053 3057 3062 3062 3064 3065 3063 3062 3059
3071 3071 3071 3070 3072 3069 3069 3069 3068 3068 3066 3065 3062 3061 3062 3063 3064 3064 3065 3067 3066 3067 3068 3065 3066 3066 3066 3065 3069 3062 3066 3066 3065 3066 3061 3061 3050 3052 3055 3056 3056 3050 3051 3050 3049
3066 3066 3065 3065 3064 3065 3066 3065 3065 3066 3066 3063 3061 3061 3061 3063 3064 3063 3063 3062 3063 3064 3065 3063 3061 3061 3061 3061 3063 3056 3061 3060 3060 3058 3057 3054 3058 3047 3046 3045 3046 3043 3041 3042 3043
3061 3060 3059 3059 3059 3060 3060 3061 3063 3065 3061 3060 3059 3060 3060 3060 3061 3061 3061 3061 3061 3059 3058 3056 3058 3057 3056 3056 3057 3057 3056 3056 3054 3054 3051 3044 3050 3041 3038 3038 3039 3038 3036 3036 3035
3054 3053 3053 3054 3055 3055 3056 3058 3061 3059 3059 3059 3057 3057 3058 3057 3058 3058 3059 3059 3060 3057 3053 3052 3050 3051 3053 3051 3051 3052 3052 3053 3052 3051 3042 3038 3040 3034 3031 3030 3031 3031 3030 3029 3028
3048 3048 3047 3048 3049 3050 3052 3055 3056 3055 3054 3055 3055 3055 3055 3055 3055 3055 3055 3057 3054 3053 3049 3048 3042 3046 3046 3046 3045 3044 3047 3045 3042 3042 3034 3032 3030 3025 3026 3023 3024 3025 3023 3022 3022
3046 3045 3044 3044 3045 3047 3050 3051 3051 3052 3052 3052 3053 3052 3053 3052 3054 3054 3053 3052 3050 3049 3050 3046 3041 3042 3043 3043 3044 3040 3038 3040 3037 3034 3033 3027 3025 3024 3020 3018 3016 3016 3015 3014 3013
3045 3045 3044 3043 3043 3044 3047 3047 3048 3049 3050 3050 3051 3051 3050 3049 3051 3050 3050 3049 3048 3047 3046 3046 3036 3036 3037 3038 3036 3036 3036 3034 3032 3030 3027 3014 3012 3010 3013 3012 3010 3009 3008 3007 3006
3047 3046 3044 3043 3043 3044 3044 3045 3045 3046 3048 3049 3047 3047 3046 3045 3045 3045 3046 3044 3042 3041 3041 3039 3036 3026 3029 3032 3032 3032 3027 3025 3022 3018 3011 3008 3006 3004 3004 3004 3003 3001 3000 3000 2999
3046 3046 3044 3044 3045 3043 3043 3043 3044 3044 3045 3044 3042 3041 3040 3040 3040 3040 3040 3039 3034 3036 3036 3034 3032 3021 3016 3021 3025 3020 3019 3018 3015 3010 3003 2999 3000 2998 2998 2997 2996 2996 2996 2995 2995
3046 3045 3044 3044 3043 3042 3042 3041 3041 3041 3041 3040 3038 3037 3036 3036 3038 3033 3033 3034 3032 3032 3031 3029 3028 3021 3007 3012 3012 3012 3011 3012 3012 3010 3002 2997 2995 2992 2992 2992 2991 2991 2990 2989 2989
3046 3045 3043 3042 3041 3041 3040 3039 3039 3038 3037 3036 3034 3032 3031 3030 3031 3029 3028 3027 3027 3027 3026 3024 3021 3022 3018 3014 3014 3011 3007 3005 3005 3005 3001 2998 2995 2993 2993 2991 2989 2988 2986 2984 2982
3043 3042 3041 3040 3038 3038 3037 3037 3036 3036 3034 3033 3030 3029 3027 3026 3023 3022 3021 3020 3021 3020 3020 3020 3016 3016 3013 3011 3010 3005 3003 3001 2998 2997 2995 2993 2991 2989 2987 2987 2985 2983 2982 2981 2979
3041 3041 3039 3038 3036 3035 3034 3034 3033 3032 3032 3029 3028 3026 3025 3022 3020 3015 3016 3016 3013 3015 3016 3015 3010 3010 3004 3005 3002 2998 2997 2996 2995 2993 2992 2990 2989 2985 2984 2983 2984 2979 2978 2977 2975
3037 3037 3037 3035 3033 3033 3032 3031 3030 3029 3027 3024 3022 3020 3019 3017 3014 3012 3010 3008 3007 3007 3009 3008 3006 3005 3000 3001 2999 2998 2995 2994 2993 2992 2990 2989 2987 2985 2984 2982 2981 2972 2972 2971 2969
Wind_Speed
3 5 7 8 10 10 10 9 9 8 8 7 6 6 7 8 8 7 7 8 9 9 9 9 10 10 10 11 13 14 12 9 9 10 7 10 12 13 14 14 13 14 11 8 8
2 3 5 6 8 8 8 9 8 7 7 7 6 7 8 9 8 8 9 8 8 9 9 9 9 10 12 13 15 15 13 8 12 12 11 12 15 16 16 14 14 12 10 9 9
5 1 1 3 5 6 7 7 6 6 7 6 7 8 8 9 9 9 9 8 7 9 10 9 10 12 13 14 14 15 11 9 11 13 13 13 15 17 15 13 9 11 12 10 9
8 6 3 2 3 4 5 5 5 5 5 5 6 7 7 8 5 7 9 9 8 8 9 9 10 11 12 12 12 16 11 12 10 14 15 14 15 16 18 9 13 12 13 11 9
9 8 5 2 2 3 3 4 4 4 4 4 5 7 8 7 6 9 9 8 8 8 8 9 10 11 13 11 14 15 8 13 12 12 13 15 14 20 13 9 14 14 14 11 10
7 7 7 4 1 1 2 3 4 5 5 6 7 8 8 7 8 9 10 9 8 9 9 9 10 13 13 13 16 14 14 13 14 13 16 16 15 19 9 12 15 17 15 14 13
6 6 6 5 4 2 2 3 4 5 6 8 9 9 10 9 6 8 9 9 9 9 10 11 13 13 13 12 18 18 20 17 15 14 19 17 19 14 10 9 8 11 12 13 12
5 5 4 4 3 3 2 3 4 5 7 8 10 10 10 10 9 12 12 12 12 11 11 13 14 15 18 16 17 18 21 22 11 11 15 14 22 11 12 10 9 12 13 15 15
5 5 5 5 4 4 4 4 5 6 7 9 10 11 11 11 10 14 13 15 15 14 15 15 17 18 20 21 21 19 18 20 20 15 15 18 23 13 14 17 17 19 19 20 20
7 6 6 6 6 6 6 7 7 8 9 11 12 11 8 8 8 9 10 10 12 14 17 19 20 22 25 26 21 15 16 20 20 16 18 23 31 24 21 26 28 25 22 22 24
10 9 8 8 8 8 8 8 9 10 9 10 13 15 16 15 16 15 15 16 16 16 17 19 23 29 23 22 21 21 25 28 29 26 29 33 36 33 28 28 30 27 23 26 28
12 11 11 11 11 11 10 10 10 12 14 11 16 18 19 21 21 20 19 19 20 18 18 23 30 23 22 23 25 25 28 34 32 26 26 29 37 35 33 31 27 26 24 25 23
15 14 13 13 13 13 13 12 12 14 17 17 15 16 19 20 21 21 20 21 22 23 21 27 22 17 14 17 23 26 29 28 32 28 31 34 43 34 26 24 22 24 21 20 24
17 16 15 16 15 15 14 14 13 13 11 8 6 6 6 7 10 9 14 17 19 18 19 22 20 23 29 32 28 36 31 30 31 25 24 14 10 19 26 22 18 20 21 21 19
16 15 17 16 17 16 15 13 12 8 4 4 4 3 2 3 4 6 7 10 13 16 17 14 15 14 18 19 15 28 20 20 20 23 25 30 13 9 19 30 15 9 14 18 19
17 15 15 14 14 15 13 11 8 4 5 2 1 1 4 4 5 7 10 10 13 17 20 26 23 26 24 23 20 21 17 17 19 22 8 29 16 8 16 14 8 10 10 15 22
18 17 16 15 14 12 11 8 5 6 1 0 1 4 6 8 9 8 9 10 10 14 21 24 29 30 26 26 30 29 19 4 4 3 8 9 16 17 14 14 15 14 17 17 19
11 12 12 14 14 11 10 9 6 4 2 2 5 9 6 7 3 5 8 10 11 15 23 16 14 9 11 22 25 22 29 14 6 4 4 4 10 12 18 19 22 26 31 30 28
7 6 6 7 9 9 8 7 5 4 6 8 10 11 6 8 7 3 4 9 11 10 5 9 9 1 10 17 11 12 20 28 30 18 3 10 7 10 18 17 19 23 26 28 30
5 5 4 1 4 7 10 8 7 9 8 10 9 7 11 19 18 16 14 11 13 11 13 9 25 23 18 17 26 30 27 12 12 5 7 11 16 18 26 21 21 22 26 29 31
5 6 6 5 5 6 8 8 10 12 13 10 12 15 20 21 22 20 9 16 22 25 26 26 20 33 33 28 24 26 31 32 30 27 13 14 7 20 21 17 16 16 19 24 26
6 4 4 3 2 2 4 7 9 11 12 15 17 18 17 15 16 12 9 11 22 24 25 25 16 31 31 29 21 29 18 13 9 16 26 24 12 20 20 17 17 16 15 18 22
4 3 2 0 1 2 5 9 10 12 10 8 10 15 17 17 8 9 10 12 19 21 14 25 8 14 27 18 18 12 18 21 25 14 15 11 5 17 20 20 17 16 16 16 17
7 4 5 3 2 3 5 8 7 11 11 11 15 16 15 16 16 12 16 19 20 14 21 19 15 17 16 22 24 32 36 35 27 13 20 18 14 13 9 11 12 14 16 17 18
13 8 8 6 7 7 9 10 9 10 12 13 16 19 21 17 21 22 17 22 23 21 10 8 15 16 22 29 28 28 28 31 26 16 14 15 12 11 11 10 10 10 11 14 17
13 11 10 7 8 9 9 11 13 12 16 20 20 18 18 22 23 30 27 22 24 22 14 15 21 26 36 20 15 21 16 13 12 7 5 7 8 10 12 12 9 8 9 10 11
15 13 11 8 9 9 8 10 13 14 14 15 19 22 20 20 21 22 23 24 26 25 19 26 18 8 13 13 11 8 11 9 6 5 5 4 8 8 10 13 16 16 17 19 19
Wind_Direction
251 234 224 217 214 212 211 214 214 214 226 228 235 243 249 244 232 214 197 191 188 183 179 175 175 186 191 206 209 217 222 225 220 219 248 247 268 279 290 289 283 280 288 291 288
339 257 228 216 215 211 212 214 213 216 229 234 243 247 247 242 228 204 199 188 187 182 172 172 184 194 198 204 215 220 233 237 227 233 248 260 272 281 282 279 277 283 292 291 287
32 357 236 210 208 208 208 211 211 218 234 245 250 247 239 230 219 206 189 185 195 187 180 185 191 197 207 216 224 233 238 240 241 252 266 273 280 283 284 279 284 278 280 285 285
37 36 49 123 173 187 196 206 211 224 236 247 250 245 233 223 200 201 186 179 189 185 187 194 202 219 223 223 231 243 243 246 244 256 267 276 282 284 281 302 275 269 269 270 276
36 36 37 61 151 188 204 212 221 226 235 244 256 255 244 234 226 200 199 194 197 193 199 211 216 223 229 233 244 257 254 247 266 272 276 277 283 284 293 296 270 270 269 273 274
29 33 34 34 19 215 225 226 232 243 245 249 254 261 259 260 239 223 222 221 208 206 215 225 232 233 239 243 249 268 278 279 273 281 286 284 285 279 331 260 266 267 278 281 279
10 17 24 27 22 349 271 257 255 253 254 255 259 260 265 255 236 225 226 223 216 215 225 228 239 244 248 254 257 271 277 275 285 290 274 284 276 292 293 296 285 272 276 275 275
341 344 350 351 355 350 320 294 278 274 271 270 269 270 271 257 245 245 236 235 232 226 229 233 241 246 252 254 258 268 275 284 287 285 281 271 283 288 276 289 291 279 276 277 274
319 316 314 310 306 303 298 294 290 285 282 279 277 277 273 267 248 243 246 242 241 237 235 235 239 245 251 255 261 263 266 280 289 283 275 273 280 285 282 285 286 286 280 275 279
304 302 299 294 290 286 283 281 280 280 279 279 279 273 269 259 250 236 241 248 250 247 244 242 240 243 247 243 246 271 273 280 277 275 281 279 277 279 278 289 288 283 279 280 283
294 293 291 290 285 283 282 281 283 281 270 271 270 269 264 259 260 259 258 258 261 259 254 253 249 251 269 278 277 272 270 271 274 275 278 276 282 282 283 275 278 283 280 283 282
283 283 284 282 282 281 279 281 286 286 288 274 271 269 266 261 257 256 256 258 261 262 255 252 258 276 272 264 264 263 267 269 279 280 281 286 282 280 278 282 283 287 288 286 276
282 279 277 275 276 279 279 283 289 294 298 290 268 259 257 258 260 262 263 263 266 264 261 261 259 268 262 263 260 265 263 275 281 289 284 289 285 284 284 285 300 311 306 296 278
279 276 271 271 270 271 273 280 285 297 299 281 259 246 247 248 262 267 256 250 254 265 267 269 277 267 263 266 264 266 272 275 275 281 282 276 288 289 294 295 303 278 277 282 276
281 278 272 263 265 265 267 270 275 292 345 259 260 258 295 302 296 307 297 273 267 270 267 267 277 272 268 276 273 272 284 280 273 271 274 269 267 292 298 290 285 280 250 249 262
280 277 275 271 265 263 262 260 258 221 256 259 321 318 318 334 334 316 311 301 303 284 270 282 281 273 276 277 270 275 276 269 267 262 256 255 224 258 262 255 246 256 244 246 251
278 269 264 261 262 263 256 244 207 214 229 223 254 314 334 333 341 327 301 298 300 299 295 293 284 280 276 270 265 263 253 265 258 191 235 258 211 235 242 240 234 231 231 242 242
283 272 265 257 248 246 236 214 208 231 234 219 275 305 313 321 331 325 299 299 280 284 283 293 304 308 274 264 267 265 241 216 218 202 248 232 216 217 234 240 241 243 239 239 240
306 297 280 256 233 223 207 196 187 213 261 292 301 302 233 231 310 328 319 287 274 285 278 306 267 292 261 301 285 270 247 263 253 265 277 237 232 212 214 232 229 225 226 226 228
28 55 37 53 190 188 184 190 206 224 257 288 298 273 274 278 288 293 292 261 274 263 291 291 298 290 287 276 272 264 265 246 217 220 234 240 220 215 211 220 233 226 222 224 227
53 48 34 57 110 147 186 197 226 249 271 282 273 275 278 286 289 291 257 273 269 273 285 297 292 279 282 283 282 276 261 253 252 241 249 255 232 236 248 244 244 239 233 230 228
35 20 44 61 80 138 189 210 250 267 278 282 282 282 284 287 294 292 256 268 281 296 304 297 296 288 280 288 278 267 257 261 258 263 248 256 244 260 252 255 256 249 250 249 246
358 360 17 81 301 275 250 267 272 283 289 278 274 279 288 289 296 263 250 261 277 298 301 302 276 308 303 293 248 243 294 310 308 323 276 279 234 253 248 248 250 256 257 258 258
352 320 330 280 309 291 282 275 278 301 304 301 300 299 299 296 292 270 281 285 294 296 300 295 269 248 258 279 304 299 296 299 300 284 287 294 288 263 270 264 272 273 278 280 281
359 344 342 328 321 320 315 302 302 308 300 297 297 296 298 300 297 291 292 300 300 300 277 267 264 266 269 279 291 288 284 286 297 283 253 265 246 272 281 282 272 266 274 283 291
353 355 339 327 323 324 319 306 305 304 300 296 290 287 284 288 287 289 295 297 295 294 285 265 278 287 289 302 284 256 276 287 282 273 244 257 251 317 315 319 312 305 292 291 286
359 346 338 336 333 326 318 309 307 308 307 299 296 294 297 293 290 295 292 291 286 285 290 291 291 278 281 278 273 259 273 312 319 311 266 251 283 304 310 309 309 314 310 314 315